Waarnemingen

Advertentie
Mijn weer
Decimomannu, Italië (16546): temperatuur & dauwpunt: 12.02.2019 01:00:00 - 18.02.2019 01:00:00 (CET)Decimomannu, Italië (16546): windsnelheid: 12.02.2019 01:00:00 - 18.02.2019 01:00:00 (CET)Decimomannu, Italië (16546): windrichting: 12.02.2019 01:00:00 - 18.02.2019 01:00:00 (CET)Decimomannu, Italië (16546): luchtdruk: 12.02.2019 01:00:00 - 18.02.2019 01:00:00 (CET)Decimomannu, Italië (16546): zicht: 12.02.2019 01:00:00 - 18.02.2019 01:00:00 (CET)
Datum & Tijd tt [°C] td [°C] ff [km/u] ff [kn] dd ppp [hPa] vv [km]
18.02.2019 01:00:00 5,2 3,7 5 3 W 1027,1 25
18.02.2019 00:00:00 5,0 4,0 4 2 NNW - 10
17.02.2019 23:00:00 5,0 3,0 4 2 NNO - 10
17.02.2019 22:00:00 6,8 5,1 11 6 O 1027,7 15
17.02.2019 21:00:00 7,0 5,0 11 6 O - 10
17.02.2019 20:00:00 8,0 6,0 8 4 O - 10
17.02.2019 19:00:00 15,0 13,7 9 5 ZO 1026,8 16
17.02.2019 18:00:00 12,0 10,0 16 9 ZZO - 10
17.02.2019 17:00:00 14,0 10,0 18 10 ZO - 10
17.02.2019 16:00:00 14,8 11,0 18 10 ZO 1026,8 25
17.02.2019 15:00:00 15,0 11,0 18 10 ZZO - 10
17.02.2019 14:00:00 15,0 10,0 16 9 ZZO - 10
17.02.2019 13:00:00 15,0 8,9 15 8 Z 1029,4 25
17.02.2019 12:00:00 14,0 9,0 11 6 ZZO - 10
17.02.2019 11:00:00 12,0 10,0 5 3 WNW - 10
17.02.2019 10:00:00 9,0 7,3 4 2 NNW 1029,9 25
17.02.2019 09:00:00 5,0 3,0 4 2 N - 10
17.02.2019 08:00:00 3,0 2,0 5 3 NW - 10
17.02.2019 07:00:00 3,0 1,5 5 3 NW 1029,3 10
17.02.2019 06:00:00 3,0 2,0 8 4 NNW - 10
17.02.2019 05:00:00 3,0 2,0 8 4 NW - 10
17.02.2019 04:00:00 3,8 2,3 8 4 NNW 1029,1 12
17.02.2019 03:00:00 4,0 3,0 5 3 NW - 10
17.02.2019 02:00:00 5,0 3,0 4 2 NNW - 10
17.02.2019 01:00:00 5,8 4,1 5 3 NO 1030,0 10
17.02.2019 00:00:00 6,0 4,0 4 2 ZW - 10
16.02.2019 23:00:00 7,0 6,0 5 3 NNO - 10
16.02.2019 22:00:00 8,0 6,5 4 2 ZZO 1030,1 12
16.02.2019 21:00:00 9,0 8,0 8 4 ZZO - 10
16.02.2019 20:00:00 9,0 7,0 9 5 OZO - 10
16.02.2019 19:00:00 10,8 8,9 11 6 ZO 1029,5 15
16.02.2019 18:00:00 12,0 10,0 11 6 ZO - 10
16.02.2019 17:00:00 15,0 11,0 13 7 ZO - 10
16.02.2019 16:00:00 16,2 11,2 13 7 ZZO 1029,0 15
16.02.2019 15:00:00 17,0 12,0 15 8 ZZO - 10
16.02.2019 14:00:00 17,0 11,0 9 5 ZZO - 10
16.02.2019 13:00:00 17,0 10,8 9 5 Z 1029,8 15
16.02.2019 12:00:00 16,0 11,0 13 7 Z - 10
16.02.2019 11:00:00 15,0 11,0 11 6 ZO - 10
16.02.2019 10:00:00 10,0 8,1 4 2 WNW 1029,8 15
16.02.2019 09:00:00 5,0 3,0 4 2 NNW - 10
16.02.2019 08:00:00 2,0 0,0 0 0 N - 10
16.02.2019 07:00:00 2,2 0,7 2 1 NO 1028,3 15
16.02.2019 06:00:00 2,0 1,0 9 5 N - 10
16.02.2019 05:00:00 3,0 2,0 2 1 ONO - 10
16.02.2019 04:00:00 3,2 1,7 2 1 ZW 1027,2 20
16.02.2019 03:00:00 5,0 3,0 5 3 WZW - 10
16.02.2019 02:00:00 5,0 4,0 4 2 WNW - 10
16.02.2019 01:00:00 6,0 4,5 8 4 N 1027,2 12
16.02.2019 00:00:00 6,0 5,0 5 3 NNO - 10
15.02.2019 23:00:00 7,0 6,0 5 3 N - 10
15.02.2019 22:00:00 8,0 6,5 2 1 N 1027,1 20
15.02.2019 21:00:00 10,0 8,0 8 4 NO - 10
15.02.2019 20:00:00 12,0 10,0 11 6 NNW - 10
15.02.2019 19:00:00 12,0 10,4 11 6 N 1025,9 20
15.02.2019 18:00:00 15,0 12,0 8 4 NNW - 10
15.02.2019 17:00:00 16,0 10,0 15 8 NNW - 10
15.02.2019 16:00:00 17,0 8,2 15 8 NW 1025,9 20
15.02.2019 15:00:00 18,0 7,0 8 4 NW - 10
15.02.2019 14:00:00 18,0 5,0 8 4 W - 10
15.02.2019 13:00:00 16,2 6,9 8 4 NW 1027,9 20
15.02.2019 12:00:00 13,0 8,0 11 6 NNW - 10
15.02.2019 11:00:00 10,0 7,0 11 6 NW - 10
15.02.2019 10:00:00 7,0 5,5 11 6 NW 1030,0 20
15.02.2019 09:00:00 4,0 3,0 8 4 NW - 10
15.02.2019 08:00:00 2,0 1,0 8 4 WNW - 10
15.02.2019 07:00:00 1,8 0,3 5 3 NNW 1029,9 15
15.02.2019 06:00:00 2,0 0,0 9 5 NNO - 10
15.02.2019 05:00:00 4,0 3,0 9 5 N - 10
15.02.2019 04:00:00 4,0 2,5 9 5 NNW 1030,2 20
15.02.2019 03:00:00 5,0 4,0 5 3 NNW - 10
15.02.2019 02:00:00 5,0 4,0 8 4 NW - 10
15.02.2019 01:00:00 5,4 3,9 11 6 N 1031,3 20
15.02.2019 00:00:00 5,0 4,0 5 3 WNW - 10
14.02.2019 23:00:00 6,0 4,0 8 4 NO - 10
14.02.2019 22:00:00 7,2 5,8 4 2 N 1031,8 20
14.02.2019 21:00:00 8,0 7,0 2 1 N - 10
14.02.2019 20:00:00 10,0 9,0 5 3 Z - 10
14.02.2019 19:00:00 12,0 10,6 2 1 NNO 1031,9 15
14.02.2019 18:00:00 13,0 12,0 13 7 W - 10
14.02.2019 17:00:00 16,0 12,0 16 9 WZW - 10
14.02.2019 16:00:00 16,8 10,9 16 9 W 1031,6 20
14.02.2019 15:00:00 18,0 10,0 11 6 W - 10
14.02.2019 14:00:00 17,0 8,0 5 3 WZW - 10
14.02.2019 13:00:00 16,8 7,2 9 5 ZZW 1033,2 20
14.02.2019 12:00:00 15,0 6,0 11 6 ZO - 10
14.02.2019 11:00:00 11,0 9,0 2 1 WZW - 10
14.02.2019 10:00:00 7,0 5,5 4 2 NNW 1033,8 20
14.02.2019 09:00:00 4,0 2,0 2 1 WZW - 10
14.02.2019 08:00:00 2,0 0,0 8 4 N - 10
14.02.2019 07:00:00 1,6 0,1 8 4 NW 1033,0 15
14.02.2019 06:00:00 2,0 1,0 8 4 N - 10
14.02.2019 05:00:00 3,0 1,0 8 4 NNW - 0,8
14.02.2019 04:00:00 2,6 1,1 2 1 WZW 1032,5 1,5
14.02.2019 03:00:00 4,0 3,0 5 3 WNW - 10
14.02.2019 02:00:00 5,0 3,0 5 3 WNW - 10
14.02.2019 01:00:00 5,2 3,7 8 4 NW 1032,9 10
14.02.2019 00:00:00 7,0 6,0 9 5 WNW - 10
13.02.2019 23:00:00 7,0 6,0 11 6 N - 10
13.02.2019 22:00:00 7,6 6,4 5 3 NNW 1032,9 12
13.02.2019 21:00:00 8,0 7,0 9 5 N - 10
13.02.2019 20:00:00 10,0 9,0 9 5 NNO - 10
13.02.2019 19:00:00 11,2 10,1 15 8 N 1031,7 20
13.02.2019 18:00:00 12,0 11,0 13 7 NNW - 10
13.02.2019 17:00:00 15,0 11,0 18 10 NNW - 10
13.02.2019 16:00:00 15,8 10,5 18 10 NNW 1030,9 20
13.02.2019 15:00:00 16,0 10,0 16 9 NNW - 10
13.02.2019 14:00:00 15,0 9,0 16 9 NNW - 10
13.02.2019 13:00:00 14,2 9,8 18 10 NNW 1031,9 20
13.02.2019 12:00:00 13,0 10,0 18 10 NW - 10
13.02.2019 11:00:00 10,0 8,0 9 5 NW - 10
13.02.2019 10:00:00 7,4 5,7 8 4 WNW 1032,3 20
13.02.2019 09:00:00 4,0 2,0 5 3 WNW - 10
13.02.2019 08:00:00 1,0 0,0 5 3 W - 10
13.02.2019 07:00:00 1,0 -0,5 4 2 NNW 1031,0 15
13.02.2019 06:00:00 2,0 1,0 5 3 N - 10
13.02.2019 05:00:00 2,0 1,0 4 2 N - 10
13.02.2019 04:00:00 2,8 1,3 8 4 NNW 1029,6 15
13.02.2019 03:00:00 5,0 3,0 5 3 NW - 10
13.02.2019 02:00:00 5,0 4,0 8 4 NNW - 10
13.02.2019 01:00:00 6,0 4,5 8 4 NNW 1029,4 15
13.02.2019 00:00:00 6,0 5,0 5 3 NO - 10
12.02.2019 23:00:00 7,0 5,0 5 3 NNW - 10
12.02.2019 22:00:00 5,8 4,6 9 5 NNO 1028,9 15
12.02.2019 21:00:00 7,0 5,0 4 2 NNO - 10
12.02.2019 20:00:00 10,0 7,0 15 8 NW - 10
12.02.2019 19:00:00 11,2 5,1 16 9 WNW 1026,3 15
12.02.2019 18:00:00 12,0 5,0 18 10 NW - 10
12.02.2019 17:00:00 14,0 5,0 22 12 NW - 10
12.02.2019 16:00:00 14,8 2,4 18 10 NW 1024,9 20
12.02.2019 15:00:00 15,0 5,0 16 9 WNW - 10
12.02.2019 14:00:00 14,0 7,0 13 7 WNW - 10
12.02.2019 13:00:00 13,4 7,0 15 8 NNW 1025,5 20
12.02.2019 12:00:00 13,0 8,0 16 9 NNW - 10
12.02.2019 11:00:00 11,0 8,0 9 5 NNW - 10
12.02.2019 10:00:00 8,2 6,0 8 4 NW 1026,0 20
12.02.2019 09:00:00 6,0 5,0 8 4 WNW - 10
12.02.2019 08:00:00 2,0 1,0 5 3 N - 10
12.02.2019 07:00:00 2,4 1,4 4 2 ZZO 1023,6 12
12.02.2019 06:00:00 4,0 3,0 4 2 O - 10
12.02.2019 05:00:00 4,0 3,0 11 6 NW - 10
12.02.2019 04:00:00 6,0 5,3 4 2 NW 1022,7 12
12.02.2019 03:00:00 7,0 6,0 11 6 NW - 10
12.02.2019 02:00:00 7,0 7,0 13 7 NW - 10
12.02.2019 01:00:00 9,2 7,7 9 5 WNW 1021,4 12

tt = temperatuur
td = dauwpunt
ff = windsnelheid
dd = windrichting
ppp = luchtdruk
vv = zicht

Weerstations in de omgeving